Weather History for Molokai, HI

Change the Weather History Date:

Wednesday, October 19, 2011

  Actual Average Record
Temperature  
Mean Temperature 75 °F -  
Max Temperature 81 °F 84 °F 89 °F (1984)
Min Temperature 69 °F 69 °F 62 °F (1959)
Cooling Degree Days 10    
Growing Degree Days 25 (Base 50)    
Moisture  
Dew Point 63 °F    
Average Humidity 65    
Maximum Humidity 78    
Minimum Humidity 52    
Precipitation  
Precipitation 0.00 in - - ()
Sea Level Pressure  
Sea Level Pressure 30.05 in    
Wind  
Wind Speed 7 mph (NE)    
Max Wind Speed 15 mph    
Max Gust Speed 28 mph    
Visibility 10 miles    
Events Rain    
Averages and records for this station are not official NWS values.
T = Trace of Precipitation, MM = Missing Value Source: NWS Daily Summary

Daily Weather History Graph

Daily Weather History Graph

Search for Another Location

Airport:

Trip Planner

Search our weather history database for the weather conditions in past years. The results will help you decide how hot, cold, wet, or windy it might be!

Date:

Astronomy

Oct. 19, 2011 Rise Set
Actual Time 6:25 AM HST 6:00 PM HST
Civil Twilight 6:02 AM HST 6:23 PM HST
Nautical Twilight 5:36 AM HST 6:49 PM HST
Astronomical Twilight 5:11 AM HST 7:15 PM HST
Moon No Moon Rise 12:45 PM HST (10/19)
Length of Visible Light 12h 20m
Length of Day
11h 35m
Waning Gibbous, 52% of the Moon is Illuminated
Oct 19
Waning Gibbous
Oct 19
Last Quarter
Oct 26
New
Nov 2
First Quarter
Nov 10
Full

Hourly Weather History & Observations

Time (HST) Temp. Heat Index Dew Point Humidity Pressure Visibility Wind Dir Wind Speed Gust Speed Precip Events Conditions
12:54 AM 69.1 °F - 61.0 °F 75% 30.06 in 10.0 mi NNE 5.8 mph - N/A   Clear
1:54 AM 70.0 °F - 63.0 °F 78% 30.04 in 10.0 mi NE 4.6 mph - N/A   Clear
2:54 AM 69.1 °F - 61.0 °F 75% 30.04 in 10.0 mi NE 3.5 mph - N/A   Clear
7:54 AM 75.0 °F - 66.0 °F 73% 30.08 in 10.0 mi NNE 5.8 mph - N/A   Partly Cloudy
8:54 AM 77.0 °F - 64.9 °F 66% 30.09 in 10.0 mi Calm Calm - N/A   Overcast
9:54 AM 79.0 °F - 60.1 °F 52% 30.09 in 10.0 mi ENE 9.2 mph - 0.00 in Rain Light Rain
10:54 AM 80.1 °F 81.2 °F 62.1 °F 54% 30.08 in 10.0 mi NNW 6.9 mph - 0.00 in   Mostly Cloudy
11:54 AM 80.1 °F 81.5 °F 63.0 °F 56% 30.06 in 10.0 mi ENE 9.2 mph - N/A   Mostly Cloudy
12:54 PM 81.0 °F 82.7 °F 64.9 °F 58% 30.03 in 10.0 mi NNE 8.1 mph - N/A   Overcast
1:54 PM 79.0 °F - 64.0 °F 60% 30.00 in 10.0 mi North 12.7 mph - N/A   Scattered Clouds
2:54 PM 81.0 °F 82.2 °F 63.0 °F 54% 30.00 in 10.0 mi NNE 11.5 mph 18.4 mph N/A   Scattered Clouds
3:54 PM 80.1 °F 81.7 °F 64.0 °F 58% 30.00 in 10.0 mi NE 9.2 mph 21.9 mph N/A   Partly Cloudy
4:54 PM 78.1 °F - 64.9 °F 64% 30.00 in 10.0 mi NE 15.0 mph 27.6 mph N/A   Partly Cloudy
5:54 PM 75.0 °F - 64.0 °F 69% 30.01 in 10.0 mi NE 11.5 mph 19.6 mph N/A   Scattered Clouds
6:54 PM 73.9 °F - 64.0 °F 71% 30.04 in 10.0 mi NE 11.5 mph - N/A   Clear
7:54 PM 73.9 °F - 62.1 °F 66% 30.06 in 10.0 mi NE 5.8 mph - N/A   Partly Cloudy
8:54 PM 73.9 °F - 63.0 °F 68% 30.06 in 10.0 mi NE 8.1 mph - N/A   Overcast
9:54 PM 73.0 °F - 62.1 °F 68% 30.07 in 10.0 mi NNE 5.8 mph - N/A   Scattered Clouds
10:54 PM 73.0 °F - 62.1 °F 68% 30.07 in 10.0 mi NE 5.8 mph - N/A   Mostly Cloudy
11:54 PM 73.0 °F - 63.0 °F 71% 30.05 in 10.0 mi NNE 10.4 mph 18.4 mph N/A   Mostly Cloudy